Facebook Twitter

Wetterstation Darscheid

Messwerte
  Temperatur Wetter Niederschlag Feuchte Wind
Mi, 14:30 Uhr 18.6 °C - - 60.8 % 1 km/h NW
Mi, 14:15 Uhr 18.0 °C - - 62.8 % 2 km/h N
Mi, 14:00 Uhr 17.8 °C - - 64.0 % 2 km/h N
Mi, 13:45 Uhr 17.3 °C - - 66.0 % 1 km/h NW
Mi, 13:30 Uhr 16.8 °C - - 70.9 % 1 km/h N
Mi, 13:15 Uhr 16.7 °C - - 73.3 % 2 km/h NW
Mi, 13:00 Uhr 15.9 °C - - 76.6 % 1 km/h N
Mi, 12:45 Uhr 15.1 °C - - 79.1 % 1 km/h N
Mi, 12:30 Uhr 15.5 °C - - 78.6 % 1 km/h NW
Mi, 12:15 Uhr 14.9 °C - - 80.6 % 1 km/h N
Mi, 12:00 Uhr 14.6 °C - - 82.2 % 1 km/h N
Mi, 11:30 Uhr 15.1 °C - - 82.3 % 1 km/h NW
Mi, 11:15 Uhr 15.2 °C - - 80.7 % 1 km/h N
Mi, 11:00 Uhr 15.4 °C - - 83.4 % 1 km/h NW
Mi, 10:45 Uhr 15.2 °C - - 82.3 % 1 km/h NW
Mi, 10:30 Uhr 14.6 °C - - 82.7 % 1 km/h N
Mi, 10:15 Uhr 14.5 °C - - 83.8 % 1 km/h N
Mi, 10:00 Uhr 15.2 °C - - 83.4 % 2 km/h N
Mi, 09:45 Uhr 14.4 °C - - 83.3 % 1 km/h N
Mi, 09:30 Uhr 14.0 °C - - 83.8 % 1 km/h N

Alle Zeitangaben MESZ